Year,Month,Day,Hour,Minute,Value (Times are PST for temperature in C)
2017,12,05,00,00,-0.20
2017,12,05,00,01,-0.20
2017,12,05,00,02,-0.20
2017,12,05,00,03,-0.20
2017,12,05,00,04,-0.20
2017,12,05,00,05,-0.10
2017,12,05,00,06,-0.10
2017,12,05,00,07,-0.10
2017,12,05,00,08,-0.10
2017,12,05,00,09,-0.10
2017,12,05,00,10,-0.10
2017,12,05,00,11,-0.10
2017,12,05,00,12,-0.10
2017,12,05,00,13,-0.10
2017,12,05,00,14,-0.10
2017,12,05,00,15,-0.10
2017,12,05,00,16,-0.10
2017,12,05,00,17,-0.10
2017,12,05,00,18,-0.10
2017,12,05,00,19,-0.10
2017,12,05,00,20,-0.10
2017,12,05,00,21,-0.10
2017,12,05,00,22,-0.10
2017,12,05,00,23,-0.10
2017,12,05,00,24,-0.10
2017,12,05,00,25,-0.20
2017,12,05,00,26,-0.20
2017,12,05,00,27,-0.10
2017,12,05,00,28,-0.10
2017,12,05,00,29,-0.10
2017,12,05,00,30,0.00
2017,12,05,00,31,0.00
2017,12,05,00,32,0.00
2017,12,05,00,33,0.00
2017,12,05,00,34,0.00
2017,12,05,00,35,0.00
2017,12,05,00,36,0.00
2017,12,05,00,37,0.10
2017,12,05,00,38,0.10
2017,12,05,00,39,0.10
2017,12,05,00,40,0.10
2017,12,05,00,41,0.10
2017,12,05,00,42,0.10
2017,12,05,00,43,0.20
2017,12,05,00,44,0.20
2017,12,05,00,45,0.20
2017,12,05,00,46,0.20
2017,12,05,00,47,0.20
2017,12,05,00,48,0.20
2017,12,05,00,49,0.20
2017,12,05,00,50,0.20
2017,12,05,00,51,0.20
2017,12,05,00,52,0.30
2017,12,05,00,53,0.30
2017,12,05,00,54,0.30
2017,12,05,00,55,0.30
2017,12,05,00,56,0.30
2017,12,05,00,57,0.30
2017,12,05,00,58,0.30
2017,12,05,00,59,0.30
2017,12,05,01,00,0.30
2017,12,05,01,01,0.30
2017,12,05,01,02,0.30
2017,12,05,01,03,0.30
2017,12,05,01,04,0.30
2017,12,05,01,05,0.40
2017,12,05,01,06,0.40
2017,12,05,01,07,0.40
2017,12,05,01,08,0.40
2017,12,05,01,09,0.40
2017,12,05,01,10,0.40
2017,12,05,01,11,0.50
2017,12,05,01,12,0.50
2017,12,05,01,13,0.50
2017,12,05,01,14,0.50
2017,12,05,01,15,0.60
2017,12,05,01,16,0.60
2017,12,05,01,17,0.60
2017,12,05,01,18,0.60
2017,12,05,01,19,0.60
2017,12,05,01,20,0.60
2017,12,05,01,21,0.60
2017,12,05,01,22,0.70
2017,12,05,01,23,0.70
2017,12,05,01,24,0.70
2017,12,05,01,25,0.70
2017,12,05,01,26,0.70
2017,12,05,01,27,0.80
2017,12,05,01,28,0.80
2017,12,05,01,29,0.80
2017,12,05,01,30,0.80
2017,12,05,01,31,0.80
2017,12,05,01,32,0.80
2017,12,05,01,33,0.90
2017,12,05,01,34,0.90
2017,12,05,01,35,0.90
2017,12,05,01,36,0.90
2017,12,05,01,37,0.90
2017,12,05,01,38,0.90
2017,12,05,01,39,0.90
2017,12,05,01,40,0.90
2017,12,05,01,41,0.90
2017,12,05,01,42,0.90
2017,12,05,01,43,0.90
2017,12,05,01,44,0.90
2017,12,05,01,45,0.90
2017,12,05,01,46,1.00
2017,12,05,01,47,1.00
2017,12,05,01,48,1.00
2017,12,05,01,49,1.00
2017,12,05,01,50,1.00
2017,12,05,01,51,1.00
2017,12,05,01,52,1.00
2017,12,05,01,53,1.00
2017,12,05,01,54,1.00
2017,12,05,01,55,1.00
2017,12,05,01,56,1.00
2017,12,05,01,57,1.00
2017,12,05,01,58,1.00
2017,12,05,01,59,1.00
2017,12,05,02,00,1.00
2017,12,05,02,01,1.00
2017,12,05,02,02,1.00
2017,12,05,02,03,1.00
2017,12,05,02,04,1.00
2017,12,05,02,05,1.00
2017,12,05,02,06,0.90
2017,12,05,02,07,1.00
2017,12,05,02,08,0.90
2017,12,05,02,09,1.00
2017,12,05,02,10,1.00
2017,12,05,02,11,1.00
2017,12,05,02,12,0.90
2017,12,05,02,13,0.90
2017,12,05,02,14,0.90
2017,12,05,02,15,0.90
2017,12,05,02,16,0.90
2017,12,05,02,17,0.90
2017,12,05,02,18,0.90
2017,12,05,02,19,0.90
2017,12,05,02,20,0.90
2017,12,05,02,21,0.90
2017,12,05,02,22,0.90
2017,12,05,02,23,0.90
2017,12,05,02,24,0.90
2017,12,05,02,25,0.80
2017,12,05,02,26,0.80
2017,12,05,02,27,0.80
2017,12,05,02,28,0.80
2017,12,05,02,29,0.80
2017,12,05,02,30,0.80
2017,12,05,02,31,0.80
2017,12,05,02,32,0.80
2017,12,05,02,33,0.70
2017,12,05,02,34,0.70
2017,12,05,02,35,0.70
2017,12,05,02,36,0.70
2017,12,05,02,37,0.70
2017,12,05,02,38,0.70
2017,12,05,02,39,0.70
2017,12,05,02,40,0.70
2017,12,05,02,41,0.70
2017,12,05,02,42,0.60
2017,12,05,02,43,0.60
2017,12,05,02,44,0.60
2017,12,05,02,45,0.60
2017,12,05,02,46,0.60
2017,12,05,02,47,0.60
2017,12,05,02,48,0.60
2017,12,05,02,49,0.50
2017,12,05,02,50,0.50
2017,12,05,02,51,0.50
2017,12,05,02,52,0.50
2017,12,05,02,53,0.50
2017,12,05,02,54,0.50
2017,12,05,02,55,0.50
2017,12,05,02,56,0.50
2017,12,05,02,57,0.50
2017,12,05,02,58,0.40
2017,12,05,02,59,0.40
2017,12,05,03,00,0.40
2017,12,05,03,01,0.40
2017,12,05,03,02,0.40
2017,12,05,03,03,0.40
2017,12,05,03,04,0.40
2017,12,05,03,05,0.30
2017,12,05,03,06,0.30
2017,12,05,03,07,0.30
2017,12,05,03,08,0.30
2017,12,05,03,09,0.30
2017,12,05,03,10,0.20
2017,12,05,03,11,0.20
2017,12,05,03,12,0.20
2017,12,05,03,13,0.20
2017,12,05,03,14,0.20
2017,12,05,03,15,0.10
2017,12,05,03,16,0.10
2017,12,05,03,17,0.10
2017,12,05,03,18,0.10
2017,12,05,03,19,0.10
2017,12,05,03,20,0.10
2017,12,05,03,21,0.10
2017,12,05,03,22,0.10
2017,12,05,03,23,0.10
2017,12,05,03,24,0.00
2017,12,05,03,25,0.00
2017,12,05,03,26,0.00
2017,12,05,03,27,0.00
2017,12,05,03,28,0.00
2017,12,05,03,29,0.00
2017,12,05,03,30,0.00
2017,12,05,03,31,0.00
2017,12,05,03,32,0.00
2017,12,05,03,33,0.00
2017,12,05,03,34,0.00
2017,12,05,03,35,0.00
2017,12,05,03,36,0.00
2017,12,05,03,37,0.00
2017,12,05,03,38,0.00
2017,12,05,03,39,0.00
2017,12,05,03,40,0.00
2017,12,05,03,41,0.00
2017,12,05,03,42,0.00
2017,12,05,03,43,0.00
2017,12,05,03,44,0.00
2017,12,05,03,45,0.00
2017,12,05,03,46,0.00
2017,12,05,03,47,0.00
2017,12,05,03,48,0.00
2017,12,05,03,49,0.00
2017,12,05,03,50,0.00
2017,12,05,03,51,0.00
2017,12,05,03,52,0.00
2017,12,05,03,53,0.00
2017,12,05,03,54,0.00
2017,12,05,03,55,0.00
2017,12,05,03,56,0.00
2017,12,05,03,57,-0.10
2017,12,05,03,58,-0.10
2017,12,05,03,59,-0.10
2017,12,05,04,00,-0.10
2017,12,05,04,01,-0.10
2017,12,05,04,02,-0.20
2017,12,05,04,03,-0.20
2017,12,05,04,04,-0.20
2017,12,05,04,05,-0.20
2017,12,05,04,06,-0.20
2017,12,05,04,07,-0.30
2017,12,05,04,08,-0.30
2017,12,05,04,09,-0.30
2017,12,05,04,10,-0.30
2017,12,05,04,11,-0.30
2017,12,05,04,12,-0.30
2017,12,05,04,13,-0.40
2017,12,05,04,14,-0.40
2017,12,05,04,15,-0.40
2017,12,05,04,16,-0.40
2017,12,05,04,17,-0.40
2017,12,05,04,18,-0.40
2017,12,05,04,19,-0.40
2017,12,05,04,20,-0.40
2017,12,05,04,21,-0.40
2017,12,05,04,22,-0.40
2017,12,05,04,23,-0.40
2017,12,05,04,24,-0.40
2017,12,05,04,25,-0.50
2017,12,05,04,26,-0.50
2017,12,05,04,27,-0.50
2017,12,05,04,28,-0.50
2017,12,05,04,29,-0.50
2017,12,05,04,30,-0.50
2017,12,05,04,31,-0.50
2017,12,05,04,32,-0.50
2017,12,05,04,33,-0.60
2017,12,05,04,34,-0.60
2017,12,05,04,35,-0.60
2017,12,05,04,36,-0.60
2017,12,05,04,37,-0.60
2017,12,05,04,38,-0.60
2017,12,05,04,39,-0.60
2017,12,05,04,40,-0.60
2017,12,05,04,41,-0.60
2017,12,05,04,42,-0.60
2017,12,05,04,43,-0.60
2017,12,05,04,44,-0.60
2017,12,05,04,45,-0.60
2017,12,05,04,46,-0.60
2017,12,05,04,47,-0.60
2017,12,05,04,48,-0.60
2017,12,05,04,49,-0.60
2017,12,05,04,50,-0.60
2017,12,05,04,51,-0.60
2017,12,05,04,52,-0.60
2017,12,05,04,53,-0.60
2017,12,05,04,54,-0.60
2017,12,05,04,55,-0.60
2017,12,05,04,56,-0.60
2017,12,05,04,57,-0.60
2017,12,05,04,58,-0.60
2017,12,05,04,59,-0.60
2017,12,05,05,00,-0.60
2017,12,05,05,01,-0.60
2017,12,05,05,02,-0.60
2017,12,05,05,03,-0.50
2017,12,05,05,04,-0.50
2017,12,05,05,05,-0.40
2017,12,05,05,06,-0.40
2017,12,05,05,07,-0.30
2017,12,05,05,08,-0.30
2017,12,05,05,09,-0.20
2017,12,05,05,10,-0.10
2017,12,05,05,11,-0.10
2017,12,05,05,12,0.00
2017,12,05,05,13,0.00
2017,12,05,05,14,0.10
2017,12,05,05,15,0.10
2017,12,05,05,16,0.10
2017,12,05,05,17,0.10
2017,12,05,05,18,0.20
2017,12,05,05,19,0.20
2017,12,05,05,20,0.20
2017,12,05,05,21,0.20
2017,12,05,05,22,0.30
2017,12,05,05,23,0.30
2017,12,05,05,24,0.30
2017,12,05,05,25,0.30
2017,12,05,05,26,0.30
2017,12,05,05,27,0.20
2017,12,05,05,28,0.20
2017,12,05,05,29,0.20
2017,12,05,05,30,0.20
2017,12,05,05,31,0.20
2017,12,05,05,32,0.10
2017,12,05,05,33,0.10
2017,12,05,05,34,0.20
2017,12,05,05,35,0.20
2017,12,05,05,36,0.20
2017,12,05,05,37,0.20
2017,12,05,05,38,0.20
2017,12,05,05,39,0.20
2017,12,05,05,40,0.20
2017,12,05,05,41,0.10
2017,12,05,05,42,0.20
2017,12,05,05,43,0.20
2017,12,05,05,44,0.20
2017,12,05,05,45,0.20
2017,12,05,05,46,0.20
2017,12,05,05,47,0.20
2017,12,05,05,48,0.20
2017,12,05,05,49,0.20
2017,12,05,05,50,0.20
2017,12,05,05,51,0.20
2017,12,05,05,52,0.20
2017,12,05,05,53,0.20
2017,12,05,05,54,0.10
2017,12,05,05,55,0.10
2017,12,05,05,56,0.10
2017,12,05,05,57,0.10
2017,12,05,05,58,0.10
2017,12,05,05,59,0.00
2017,12,05,06,00,0.00
2017,12,05,06,01,0.00
2017,12,05,06,02,0.00
2017,12,05,06,03,0.00
2017,12,05,06,04,-0.10
2017,12,05,06,05,-0.10
2017,12,05,06,06,-0.10
2017,12,05,06,07,-0.10
2017,12,05,06,08,-0.10
2017,12,05,06,09,-0.10
2017,12,05,06,10,-0.10
2017,12,05,06,11,-0.10
2017,12,05,06,12,-0.10
2017,12,05,06,13,-0.10
2017,12,05,06,14,-0.10
2017,12,05,06,15,-0.10
2017,12,05,06,16,-0.10
2017,12,05,06,17,-0.10
2017,12,05,06,18,-0.10
2017,12,05,06,19,-0.10
2017,12,05,06,20,-0.10
2017,12,05,06,21,-0.10
2017,12,05,06,22,-0.10
2017,12,05,06,23,-0.10
2017,12,05,06,24,-0.10
2017,12,05,06,25,-0.10
2017,12,05,06,26,-0.20
2017,12,05,06,27,-0.10
2017,12,05,06,28,-0.10
2017,12,05,06,29,-0.10
2017,12,05,06,30,-0.20
2017,12,05,06,31,-0.20
2017,12,05,06,32,-0.20
2017,12,05,06,33,-0.20
2017,12,05,06,34,-0.20
2017,12,05,06,35,-0.20
2017,12,05,06,36,-0.20
2017,12,05,06,37,-0.20
2017,12,05,06,38,-0.20
2017,12,05,06,39,-0.20
2017,12,05,06,40,-0.20
2017,12,05,06,41,-0.20
2017,12,05,06,42,-0.20
2017,12,05,06,43,-0.20
2017,12,05,06,44,-0.20
2017,12,05,06,45,-0.20
2017,12,05,06,46,-0.20
2017,12,05,06,47,-0.20
2017,12,05,06,48,-0.20
2017,12,05,06,49,-0.20
2017,12,05,06,50,-0.20
2017,12,05,06,51,-0.20
2017,12,05,06,52,-0.20
2017,12,05,06,53,-0.20
2017,12,05,06,54,-0.10
2017,12,05,06,55,-0.10
2017,12,05,06,56,-0.10
2017,12,05,06,57,-0.10
2017,12,05,06,58,-0.10
2017,12,05,06,59,-0.10
2017,12,05,07,00,-0.10
2017,12,05,07,01,-0.10
2017,12,05,07,02,-0.10
2017,12,05,07,03,-0.20
2017,12,05,07,04,-0.20
2017,12,05,07,05,-0.20
2017,12,05,07,06,-0.20
2017,12,05,07,07,-0.20
2017,12,05,07,08,-0.20
2017,12,05,07,09,-0.20
2017,12,05,07,10,-0.20
2017,12,05,07,11,-0.20
2017,12,05,07,12,-0.20
2017,12,05,07,13,-0.20
2017,12,05,07,14,-0.20
2017,12,05,07,15,-0.20
2017,12,05,07,16,-0.10
2017,12,05,07,17,-0.10
2017,12,05,07,18,-0.10
2017,12,05,07,19,0.00
2017,12,05,07,20,0.00
2017,12,05,07,21,0.10
2017,12,05,07,22,0.20
2017,12,05,07,23,0.20
2017,12,05,07,24,0.20
2017,12,05,07,25,0.30
2017,12,05,07,26,0.30
2017,12,05,07,27,0.30
2017,12,05,07,28,0.30
2017,12,05,07,29,0.30
2017,12,05,07,30,0.30
2017,12,05,07,31,0.30
2017,12,05,07,32,0.40
2017,12,05,07,33,0.40
2017,12,05,07,34,0.40
2017,12,05,07,35,0.50
2017,12,05,07,36,0.50
2017,12,05,07,37,0.60
2017,12,05,07,38,0.60
2017,12,05,07,39,0.70
2017,12,05,07,40,0.70
2017,12,05,07,41,0.70
2017,12,05,07,42,0.80
2017,12,05,07,43,0.80
2017,12,05,07,44,0.80
2017,12,05,07,45,0.80
2017,12,05,07,46,0.90
2017,12,05,07,47,0.90
2017,12,05,07,48,0.90
2017,12,05,07,49,0.90
2017,12,05,07,50,1.00
2017,12,05,07,51,1.00
2017,12,05,07,52,1.00
2017,12,05,07,53,1.00
2017,12,05,07,54,1.00
2017,12,05,07,55,0.90
2017,12,05,07,56,0.90
2017,12,05,07,57,0.90
2017,12,05,07,58,0.90
2017,12,05,07,59,0.90
2017,12,05,08,00,0.90
2017,12,05,08,01,0.90
2017,12,05,08,02,0.90
2017,12,05,08,03,0.90
2017,12,05,08,04,0.90
2017,12,05,08,05,1.00
2017,12,05,08,06,1.00
2017,12,05,08,07,1.00
2017,12,05,08,08,1.10
2017,12,05,08,09,1.10
2017,12,05,08,10,1.10
2017,12,05,08,11,1.20
2017,12,05,08,12,1.20
2017,12,05,08,13,1.20
2017,12,05,08,14,1.20
2017,12,05,08,15,1.20
2017,12,05,08,16,1.30
2017,12,05,08,17,1.30
2017,12,05,08,18,1.30
2017,12,05,08,19,1.30
2017,12,05,08,20,1.40
2017,12,05,08,21,1.50
2017,12,05,08,22,1.60
2017,12,05,08,23,1.70
2017,12,05,08,24,1.70
2017,12,05,08,25,1.70
2017,12,05,08,26,1.80
2017,12,05,08,27,1.80
2017,12,05,08,28,1.80
2017,12,05,08,29,1.90
2017,12,05,08,30,1.90
2017,12,05,08,31,1.90
2017,12,05,08,32,1.90
2017,12,05,08,33,1.90
2017,12,05,08,34,2.00
2017,12,05,08,35,2.00
2017,12,05,08,36,2.00
2017,12,05,08,37,2.00
2017,12,05,08,38,2.10
2017,12,05,08,39,2.10
2017,12,05,08,40,2.10
2017,12,05,08,41,2.10
2017,12,05,08,42,2.10
2017,12,05,08,43,2.10
2017,12,05,08,44,2.10
2017,12,05,08,45,2.10
2017,12,05,08,46,2.10
2017,12,05,08,47,2.10
2017,12,05,08,48,2.10
2017,12,05,08,49,2.10
2017,12,05,08,50,2.10
2017,12,05,08,51,2.10
2017,12,05,08,52,2.10
2017,12,05,08,53,2.10
2017,12,05,08,54,2.10
2017,12,05,08,55,2.10
2017,12,05,08,56,2.10
2017,12,05,08,57,2.10
2017,12,05,08,58,2.10
2017,12,05,08,59,2.10
2017,12,05,09,00,2.10
2017,12,05,09,01,2.10
2017,12,05,09,02,2.10
2017,12,05,09,03,2.10
2017,12,05,09,04,2.10
2017,12,05,09,05,2.20
2017,12,05,09,06,2.20
2017,12,05,09,07,2.20
2017,12,05,09,08,2.20
2017,12,05,09,09,2.20
2017,12,05,09,10,2.30
2017,12,05,09,11,2.30
2017,12,05,09,12,2.30
2017,12,05,09,13,2.30
2017,12,05,09,14,2.40
2017,12,05,09,15,2.40
2017,12,05,09,16,2.50
2017,12,05,09,17,2.50
2017,12,05,09,18,2.60
2017,12,05,09,19,2.60
2017,12,05,09,20,2.70
2017,12,05,09,21,2.70
2017,12,05,09,22,2.70
2017,12,05,09,23,2.80
2017,12,05,09,24,2.80
2017,12,05,09,25,2.90
2017,12,05,09,26,3.00
2017,12,05,09,27,3.00
2017,12,05,09,28,3.00
2017,12,05,09,29,3.10
2017,12,05,09,30,3.10
2017,12,05,09,31,3.10
2017,12,05,09,32,3.20
2017,12,05,09,33,3.20
2017,12,05,09,34,3.20
2017,12,05,09,35,3.20
2017,12,05,09,36,3.30
2017,12,05,09,37,3.30
2017,12,05,09,38,3.30
2017,12,05,09,39,3.30
2017,12,05,09,40,3.40
2017,12,05,09,41,3.40
2017,12,05,09,42,3.50
2017,12,05,09,43,3.50
2017,12,05,09,44,3.50
2017,12,05,09,45,3.50
2017,12,05,09,46,3.60
2017,12,05,09,47,3.60
2017,12,05,09,48,3.70
2017,12,05,09,49,3.70
2017,12,05,09,50,3.70
2017,12,05,09,51,3.70
2017,12,05,09,52,3.80
2017,12,05,09,53,3.80
2017,12,05,09,54,3.80
2017,12,05,09,55,3.80
2017,12,05,09,56,3.80
2017,12,05,09,57,3.80
2017,12,05,09,58,3.80
2017,12,05,09,59,3.80
2017,12,05,10,00,3.80
2017,12,05,10,01,3.90
2017,12,05,10,02,3.90
2017,12,05,10,03,3.90
2017,12,05,10,04,4.00
2017,12,05,10,05,4.00
2017,12,05,10,06,4.00
2017,12,05,10,07,4.10
2017,12,05,10,08,4.10
2017,12,05,10,09,4.20
2017,12,05,10,10,4.20
2017,12,05,11,52,6.40
2017,12,05,11,53,6.40
2017,12,05,11,54,6.50
2017,12,05,11,55,6.50
2017,12,05,11,56,6.60
2017,12,05,11,57,6.60
2017,12,05,11,58,6.60
2017,12,05,11,59,6.60
2017,12,05,12,00,6.60
2017,12,05,12,01,6.60
2017,12,05,12,02,6.60
2017,12,05,12,03,6.70
2017,12,05,12,04,6.70
2017,12,05,12,05,6.70
2017,12,05,12,06,6.70
2017,12,05,12,07,6.80
2017,12,05,12,08,6.80
2017,12,05,12,09,6.80
2017,12,05,12,10,6.80
2017,12,05,12,11,6.70
2017,12,05,12,12,6.70
2017,12,05,12,13,6.70
2017,12,05,12,14,6.70
2017,12,05,12,15,6.60
2017,12,05,12,16,6.60
2017,12,05,12,17,6.60
2017,12,05,12,18,6.60
2017,12,05,12,19,6.60
2017,12,05,12,20,6.60
2017,12,05,12,21,6.60
2017,12,05,12,22,6.60
2017,12,05,12,23,6.70
2017,12,05,12,24,6.70
2017,12,05,12,25,6.70
2017,12,05,12,26,6.70
2017,12,05,12,27,6.70
2017,12,05,12,28,6.70
2017,12,05,12,29,6.80
2017,12,05,12,30,6.80
2017,12,05,12,31,6.80
2017,12,05,12,32,6.80
2017,12,05,12,33,6.80
2017,12,05,12,34,6.90
2017,12,05,12,35,6.90
2017,12,05,12,36,7.00
2017,12,05,12,37,7.10
2017,12,05,12,38,7.10
2017,12,05,12,39,7.20
2017,12,05,12,40,7.20
2017,12,05,12,41,7.20
2017,12,05,12,42,7.30
2017,12,05,12,43,7.30
2017,12,05,12,44,7.30
2017,12,05,12,45,7.30
2017,12,05,12,46,7.30
2017,12,05,12,47,7.20
2017,12,05,12,48,7.20
2017,12,05,12,49,7.20
2017,12,05,12,50,7.10
2017,12,05,12,51,7.00
2017,12,05,12,52,7.00
2017,12,05,12,53,6.90
2017,12,05,12,54,6.80
2017,12,05,12,55,6.70
2017,12,05,12,56,6.70
2017,12,05,12,57,6.70
2017,12,05,12,58,6.60
2017,12,05,12,59,6.60
2017,12,05,13,00,6.60
2017,12,05,13,01,6.50
2017,12,05,13,02,6.50
2017,12,05,13,03,6.50
2017,12,05,13,04,6.50
2017,12,05,13,05,6.50
2017,12,05,13,06,6.60
2017,12,05,13,07,6.70
2017,12,05,13,08,6.70
2017,12,05,13,09,6.80
2017,12,05,13,10,6.80
2017,12,05,13,11,6.80
2017,12,05,13,12,6.80
2017,12,05,13,13,6.80
2017,12,05,13,14,6.80
2017,12,05,13,15,6.80
2017,12,05,13,16,6.80
2017,12,05,13,17,6.80
2017,12,05,13,18,6.70
2017,12,05,13,19,6.70
2017,12,05,13,20,6.60
2017,12,05,13,21,6.60
2017,12,05,13,22,6.60
2017,12,05,13,23,6.60
2017,12,05,13,24,6.70
2017,12,05,13,25,6.70
2017,12,05,13,26,6.80
2017,12,05,13,27,6.80
2017,12,05,13,28,6.90
2017,12,05,13,29,6.90
2017,12,05,13,30,6.90
2017,12,05,13,31,6.90
2017,12,05,13,32,6.90
2017,12,05,13,33,6.90
2017,12,05,13,34,6.90
2017,12,05,13,35,6.90
2017,12,05,13,36,6.90
2017,12,05,13,37,6.90
2017,12,05,13,38,6.80
2017,12,05,13,39,6.80
2017,12,05,13,40,6.90
2017,12,05,13,41,7.00
2017,12,05,13,42,7.00
2017,12,05,13,43,7.10
2017,12,05,13,44,7.20
2017,12,05,13,45,7.20
2017,12,05,13,46,7.20
2017,12,05,13,47,7.20
2017,12,05,13,48,7.10
2017,12,05,13,49,7.10
2017,12,05,13,50,7.10
2017,12,05,13,51,7.10
2017,12,05,13,52,7.10
2017,12,05,13,53,7.20
2017,12,05,13,54,7.10
2017,12,05,13,55,7.20
2017,12,05,13,56,7.20
2017,12,05,13,57,7.20
2017,12,05,13,58,7.20
2017,12,05,13,59,7.20
2017,12,05,14,00,7.20
2017,12,05,14,01,7.10
2017,12,05,14,02,7.10
2017,12,05,14,03,7.00
2017,12,05,14,04,7.00
2017,12,05,14,05,6.90
2017,12,05,14,06,6.90
2017,12,05,14,07,6.80
2017,12,05,14,08,6.80
2017,12,05,14,09,6.80
2017,12,05,14,10,6.80
2017,12,05,14,11,6.90
2017,12,05,14,12,6.90
2017,12,05,14,13,6.90
2017,12,05,14,14,6.90
2017,12,05,14,15,6.90
2017,12,05,14,16,6.90
2017,12,05,14,17,6.90
2017,12,05,14,18,6.90
2017,12,05,14,19,6.90
2017,12,05,14,20,6.90
2017,12,05,14,21,6.90
2017,12,05,14,22,6.90
2017,12,05,14,23,6.90
2017,12,05,14,24,7.00
2017,12,05,14,25,6.90
2017,12,05,14,26,6.90
2017,12,05,14,27,6.90
2017,12,05,14,28,6.90
2017,12,05,14,29,6.90
2017,12,05,14,30,6.90
2017,12,05,14,31,6.90
2017,12,05,14,32,6.90
2017,12,05,14,33,6.90
2017,12,05,14,34,6.90
2017,12,05,14,35,6.90
2017,12,05,14,36,6.90
2017,12,05,14,37,6.90
2017,12,05,14,38,6.90
2017,12,05,14,39,6.90
2017,12,05,14,40,6.90
2017,12,05,14,41,6.90
2017,12,05,14,42,6.90
2017,12,05,14,43,7.00
2017,12,05,14,44,7.00
2017,12,05,14,45,7.00
2017,12,05,14,46,7.00
2017,12,05,14,47,7.00
2017,12,05,14,48,7.00
2017,12,05,14,49,7.00
2017,12,05,14,50,7.00
2017,12,05,14,51,7.00
2017,12,05,14,52,7.00
2017,12,05,14,53,7.00
2017,12,05,14,54,7.00
2017,12,05,14,55,7.00
2017,12,05,14,56,7.00
2017,12,05,14,57,6.90
2017,12,05,14,58,6.90
2017,12,05,14,59,6.90
2017,12,05,15,00,6.90
2017,12,05,15,01,6.90
2017,12,05,15,02,6.90
2017,12,05,15,03,6.90
2017,12,05,15,04,6.90
2017,12,05,15,05,6.80
2017,12,05,15,06,6.80
2017,12,05,15,07,6.80
2017,12,05,15,08,6.80
2017,12,05,15,09,6.80
2017,12,05,15,10,6.70
2017,12,05,15,11,6.70
2017,12,05,15,12,6.70
2017,12,05,15,13,6.70
2017,12,05,15,14,6.70
2017,12,05,15,15,6.70
2017,12,05,15,16,6.60
2017,12,05,15,17,6.70
2017,12,05,15,18,6.60
2017,12,05,15,19,6.60
2017,12,05,15,20,6.60
2017,12,05,15,21,6.60
2017,12,05,15,22,6.50
2017,12,05,15,23,6.50
2017,12,05,15,24,6.50
2017,12,05,15,25,6.40
2017,12,05,15,26,6.40
2017,12,05,15,27,6.40
2017,12,05,15,28,6.30
2017,12,05,15,29,6.30
2017,12,05,15,30,6.30
2017,12,05,15,31,6.30
2017,12,05,15,32,6.30
2017,12,05,15,33,6.20
2017,12,05,15,34,6.20
2017,12,05,15,35,6.20
2017,12,05,15,36,6.20
2017,12,05,15,37,6.10
2017,12,05,15,38,6.10
2017,12,05,15,39,6.00
2017,12,05,15,40,6.00
2017,12,05,15,41,6.00
2017,12,05,15,42,5.90
2017,12,05,15,43,5.90
2017,12,05,15,44,5.90
2017,12,05,15,45,5.90
2017,12,05,15,46,5.80
2017,12,05,15,47,5.80
2017,12,05,15,48,5.80
2017,12,05,15,49,5.80
2017,12,05,15,50,5.80
2017,12,05,15,51,5.70
2017,12,05,15,52,5.70
2017,12,05,15,53,5.70
2017,12,05,15,54,5.70
2017,12,05,15,55,5.70
2017,12,05,15,56,5.70
2017,12,05,15,57,5.60
2017,12,05,15,58,5.60
2017,12,05,15,59,5.60
2017,12,05,16,00,5.60
2017,12,05,16,01,5.60
2017,12,05,16,02,5.60
2017,12,05,16,03,5.60
2017,12,05,16,04,5.50
2017,12,05,16,05,5.50
2017,12,05,16,06,5.50
2017,12,05,16,07,5.50
2017,12,05,16,08,5.40
2017,12,05,16,09,5.40
2017,12,05,16,10,5.40
2017,12,05,16,11,5.40
2017,12,05,16,12,5.30
2017,12,05,16,13,5.30
2017,12,05,16,14,5.30
2017,12,05,16,15,5.30
2017,12,05,16,16,5.30
2017,12,05,16,17,5.20
2017,12,05,16,18,5.20
2017,12,05,16,19,5.20
2017,12,05,16,20,5.20
2017,12,05,16,21,5.20
2017,12,05,16,22,5.20
2017,12,05,16,23,5.20
2017,12,05,16,24,5.10
2017,12,05,16,25,5.10
2017,12,05,16,26,5.10
2017,12,05,16,27,5.10
2017,12,05,16,28,5.10
2017,12,05,16,29,5.00
2017,12,05,16,30,5.00
2017,12,05,16,31,4.90
2017,12,05,16,32,4.90
2017,12,05,16,33,4.90
2017,12,05,16,34,4.90
2017,12,05,16,35,4.80
2017,12,05,16,36,4.80
2017,12,05,16,37,4.80
2017,12,05,16,38,4.80
2017,12,05,16,39,4.80
2017,12,05,16,40,4.80
2017,12,05,16,41,4.70
2017,12,05,16,42,4.70
2017,12,05,16,43,4.70
2017,12,05,16,44,4.70
2017,12,05,16,45,4.70
2017,12,05,16,46,4.60
2017,12,05,16,47,4.60
2017,12,05,16,48,4.60
2017,12,05,16,49,4.60
2017,12,05,16,50,4.50
2017,12,05,16,51,4.50
2017,12,05,16,52,4.50
2017,12,05,16,53,4.40
2017,12,05,16,54,4.40
2017,12,05,16,55,4.40
2017,12,05,16,56,4.30
2017,12,05,16,57,4.30
2017,12,05,16,58,4.30
2017,12,05,16,59,4.30
2017,12,05,17,00,4.30
2017,12,05,17,01,4.20
2017,12,05,17,02,4.20
2017,12,05,17,03,4.20
2017,12,05,17,04,4.10
2017,12,05,17,05,4.10
2017,12,05,17,06,4.10
2017,12,05,17,07,4.10
2017,12,05,17,08,4.10
2017,12,05,17,09,4.00
2017,12,05,17,10,4.00
2017,12,05,17,11,4.00
2017,12,05,17,12,3.90
2017,12,05,17,13,3.90
2017,12,05,17,14,3.90
2017,12,05,17,15,3.90
2017,12,05,17,16,3.80
2017,12,05,17,17,3.80
2017,12,05,17,18,3.80
2017,12,05,17,19,3.70
2017,12,05,17,20,3.70
2017,12,05,17,21,3.70
2017,12,05,17,22,3.70
2017,12,05,17,23,3.70
2017,12,05,17,24,3.70
2017,12,05,17,25,3.70
2017,12,05,17,26,3.60
2017,12,05,17,27,3.60
2017,12,05,17,28,3.60
2017,12,05,17,29,3.60
2017,12,05,17,30,3.60
2017,12,05,17,31,3.60
2017,12,05,17,32,3.60
2017,12,05,17,33,3.60
2017,12,05,17,34,3.60
2017,12,05,17,35,3.60
2017,12,05,17,36,3.60
2017,12,05,17,37,3.60
2017,12,05,17,38,3.60
2017,12,05,17,39,3.60
2017,12,05,17,40,3.60
2017,12,05,17,41,3.60
2017,12,05,17,42,3.60
2017,12,05,17,43,3.60
2017,12,05,17,44,3.60
2017,12,05,17,45,3.60
2017,12,05,17,46,3.60
2017,12,05,17,47,3.60
2017,12,05,17,48,3.70
2017,12,05,17,49,3.70
2017,12,05,17,50,3.70
2017,12,05,17,51,3.70
2017,12,05,17,52,3.70
2017,12,05,17,53,3.70
2017,12,05,17,54,3.70
2017,12,05,17,55,3.70
2017,12,05,17,56,3.70
2017,12,05,17,57,3.70
2017,12,05,17,58,3.70
2017,12,05,17,59,3.70
2017,12,05,18,00,3.70
2017,12,05,18,01,3.80
2017,12,05,18,02,3.80
2017,12,05,18,03,3.70
2017,12,05,18,04,3.70
2017,12,05,18,05,3.70
2017,12,05,18,06,3.70
2017,12,05,18,07,3.70
2017,12,05,18,08,3.70
2017,12,05,18,09,3.70
2017,12,05,18,10,3.60
2017,12,05,18,11,3.60
2017,12,05,18,12,3.60
2017,12,05,18,13,3.60
2017,12,05,18,14,3.60
2017,12,05,18,15,3.60
2017,12,05,18,16,3.60
2017,12,05,18,17,3.60
2017,12,05,18,18,3.60
2017,12,05,18,19,3.60
2017,12,05,18,20,3.70
2017,12,05,18,21,3.70
2017,12,05,18,22,3.70
2017,12,05,18,23,3.70
2017,12,05,18,24,3.60
2017,12,05,18,25,3.60
2017,12,05,18,26,3.60
2017,12,05,18,27,3.60
2017,12,05,18,28,3.60
2017,12,05,18,29,3.60
2017,12,05,18,30,3.60
2017,12,05,18,31,3.60
2017,12,05,18,32,3.60
2017,12,05,18,33,3.60
2017,12,05,18,34,3.60
2017,12,05,18,35,3.60
2017,12,05,18,36,3.60
2017,12,05,18,37,3.60
2017,12,05,18,38,3.60
2017,12,05,18,39,3.60
2017,12,05,18,40,3.60
2017,12,05,18,41,3.60
2017,12,05,18,42,3.60
2017,12,05,18,43,3.60
2017,12,05,18,44,3.60
2017,12,05,18,45,3.50
2017,12,05,18,46,3.50
2017,12,05,18,47,3.60
2017,12,05,18,48,3.60
2017,12,05,18,49,3.60
2017,12,05,18,50,3.60
2017,12,05,18,51,3.70
2017,12,05,18,52,3.70
2017,12,05,18,53,3.70
2017,12,05,18,54,3.60
2017,12,05,18,55,3.60
2017,12,05,18,56,3.60
2017,12,05,18,57,3.60
2017,12,05,18,58,3.60
2017,12,05,18,59,3.50
2017,12,05,19,00,3.50
2017,12,05,19,01,3.50
2017,12,05,19,02,3.50
2017,12,05,19,03,3.50
2017,12,05,19,04,3.50
2017,12,05,19,05,3.50
2017,12,05,19,06,3.40
2017,12,05,19,07,3.40
2017,12,05,19,08,3.40
2017,12,05,19,09,3.40
2017,12,05,19,10,3.30
2017,12,05,19,11,3.30
2017,12,05,19,12,3.20
2017,12,05,19,13,3.20
2017,12,05,19,14,3.20
2017,12,05,19,15,3.20
2017,12,05,19,16,3.10
2017,12,05,19,17,3.10
2017,12,05,19,18,3.00
2017,12,05,19,19,3.00
2017,12,05,19,20,2.90
2017,12,05,19,21,2.90
2017,12,05,19,22,2.90
2017,12,05,19,23,2.90
2017,12,05,19,24,2.90
2017,12,05,19,25,2.80
2017,12,05,19,26,2.80
2017,12,05,19,27,2.80
2017,12,05,19,28,2.80
2017,12,05,19,29,2.80
2017,12,05,19,30,2.80
2017,12,05,19,31,2.80
2017,12,05,19,32,2.80
2017,12,05,19,33,2.80
2017,12,05,19,34,2.80
2017,12,05,19,35,2.80
2017,12,05,19,36,2.80
2017,12,05,19,37,2.80
2017,12,05,19,38,2.80
2017,12,05,19,39,2.80